Weather History for Haines, AK

Change the Weather History Date:

Saturday, October 5, 2013

  Actual Average Record
Temperature  
Mean Temperature 47 °F -  
Max Temperature 52 °F 48 °F 59 °F (1977)
Min Temperature 44 °F 39 °F 28 °F (1990)
Degree Days  
Heating Degree Days 18    
Moisture  
Dew Point 43 °F    
Average Humidity 85    
Maximum Humidity 93    
Minimum Humidity 80    
Precipitation  
Precipitation 0.00 in - - ()
Sea Level Pressure  
Sea Level Pressure 29.91 in    
Wind  
Wind Speed 6 mph (East)    
Max Wind Speed 10 mph    
Max Gust Speed 17 mph    
Visibility 10 miles    
Events Rain    
Averages and records for this station are not official NWS values.
T = Trace of Precipitation, MM = Missing Value Source: NWS Daily Summary

Daily Weather History Graph

Daily Weather History Graph

Search for Another Location

Airport:

Trip Planner

Search our weather history database for the weather conditions in past years. The results will help you decide how hot, cold, wet, or windy it might be!

Date:

Astronomy

Oct. 05, 2013 Rise Set
Actual Time 7:17 AM AKDT 6:22 PM AKDT
Civil Twilight 6:36 AM AKDT 7:02 PM AKDT
Nautical Twilight 5:49 AM AKDT 7:49 PM AKDT
Astronomical Twilight 5:00 AM AKDT 8:38 PM AKDT
Moon 8:25 AM AKDT (10/5) 6:20 PM AKDT (10/5)
Length of Visible Light 12h 25m
Length of Day
11h 04m
New Moon, 1% of the Moon is Illuminated
Oct 5
New Moon
Oct 11
First Quarter
Oct 18
Full
Oct 26
Last Quarter
Nov 3
New

Hourly Weather History & Observations

Time (AKDT) Temp. Windchill Dew Point Humidity Pressure Visibility Wind Dir Wind Speed Gust Speed Precip Events Conditions
12:31 AM 46.4 °F 43.5 °F 42.8 °F 87% 29.78 in 10.0 mi East 5.8 mph - 0.00 in Rain Light Rain
12:54 AM 46.0 °F 42.5 °F 42.1 °F 86% 29.79 in 10.0 mi ENE 6.9 mph - 0.00 in   Overcast
1:11 AM 46.4 °F 42.4 °F 42.8 °F 87% 29.79 in 10.0 mi ENE 8.1 mph - N/A   Overcast
1:47 AM 46.4 °F 43.5 °F 42.8 °F 87% 29.80 in 10.0 mi Variable 5.8 mph - N/A   Overcast
1:54 AM 46.0 °F 41.9 °F 41.0 °F 83% 29.82 in 10.0 mi ENE 8.1 mph - N/A   Overcast
2:02 AM 46.4 °F 43.5 °F 41.0 °F 81% 29.81 in 10.0 mi ENE 5.8 mph - N/A   Overcast
2:54 AM 46.0 °F - 42.1 °F 86% 29.83 in 10.0 mi Calm Calm - N/A   Overcast
3:11 AM 46.4 °F 44.3 °F 42.8 °F 87% 29.82 in 10.0 mi East 4.6 mph - N/A   Overcast
3:54 AM 46.0 °F 43.1 °F 42.1 °F 86% 29.84 in 10.0 mi ENE 5.8 mph - N/A   Overcast
4:01 AM 46.4 °F 44.3 °F 42.8 °F 87% 29.84 in 10.0 mi ENE 4.6 mph - N/A   Overcast
4:28 AM 46.4 °F 45.2 °F 42.8 °F 87% 29.84 in 10.0 mi East 3.5 mph - N/A   Overcast
4:35 AM 44.6 °F 42.2 °F 42.8 °F 93% 29.85 in 10.0 mi East 4.6 mph - N/A   Overcast
4:54 AM 46.0 °F 43.9 °F 42.1 °F 86% 29.86 in 10.0 mi Variable 4.6 mph - N/A   Overcast
5:26 AM 46.4 °F 45.2 °F 42.8 °F 87% 29.86 in 10.0 mi East 3.5 mph - N/A   Overcast
5:54 AM 46.9 °F - 42.1 °F 83% 29.88 in 10.0 mi East 4.6 mph - N/A   Overcast
6:54 AM 46.0 °F 42.5 °F 42.1 °F 86% 29.91 in 10.0 mi Variable 6.9 mph - N/A   Overcast
7:54 AM 46.0 °F 42.5 °F 42.1 °F 86% 29.93 in 10.0 mi ENE 6.9 mph - N/A   Overcast
8:22 AM 46.4 °F 42.4 °F 42.8 °F 87% 29.93 in 10.0 mi ENE 8.1 mph - N/A   Overcast
8:39 AM 46.4 °F 42.9 °F 42.8 °F 87% 29.94 in 10.0 mi ENE 6.9 mph - N/A   Overcast
8:54 AM 46.0 °F 43.1 °F 42.1 °F 86% 29.96 in 10.0 mi ENE 5.8 mph - N/A   Overcast
9:01 AM 46.4 °F 43.5 °F 42.8 °F 87% 29.95 in 10.0 mi Variable 5.8 mph - N/A   Overcast
9:54 AM 46.0 °F 41.9 °F 42.1 °F 86% 29.98 in 10.0 mi East 8.1 mph - N/A   Mostly Cloudy
10:54 AM 48.0 °F - 43.0 °F 83% 29.97 in 10.0 mi ENE 9.2 mph - N/A   Overcast
11:44 AM 48.2 °F - 42.8 °F 82% 29.97 in 10.0 mi Variable 6.9 mph 16.1 mph N/A   Mostly Cloudy
11:54 AM 50.0 °F - 44.1 °F 80% 29.98 in 10.0 mi Variable 5.8 mph - N/A   Overcast
12:54 PM 48.9 °F - 44.1 °F 83% 29.99 in 10.0 mi East 9.2 mph 17.3 mph N/A   Overcast
1:54 PM 50.0 °F - 44.1 °F 80% 29.99 in 10.0 mi ESE 9.2 mph - N/A   Overcast
2:16 PM 50.0 °F - 44.6 °F 82% 29.97 in 10.0 mi East 10.4 mph 17.3 mph N/A   Overcast
2:32 PM 50.0 °F - 44.6 °F 82% 29.97 in 10.0 mi East 6.9 mph - N/A   Mostly Cloudy
2:46 PM 50.0 °F - 44.6 °F 82% 29.97 in 10.0 mi Variable 6.9 mph - N/A   Overcast
2:54 PM 50.0 °F - 44.1 °F 80% 29.98 in 10.0 mi East 8.1 mph - N/A   Overcast
3:54 PM 50.0 °F - 45.0 °F 83% 29.97 in 10.0 mi East 9.2 mph 17.3 mph N/A   Mostly Cloudy
4:07 PM 50.0 °F - 44.6 °F 82% 29.96 in 10.0 mi East 9.2 mph 16.1 mph N/A   Mostly Cloudy
4:20 PM 50.0 °F - 44.6 °F 82% 29.96 in 10.0 mi East 8.1 mph - N/A   Overcast
4:54 PM 48.9 °F - 44.1 °F 83% 29.97 in 10.0 mi East 5.8 mph - N/A   Overcast
5:04 PM 48.2 °F - 44.6 °F 87% 29.96 in 10.0 mi ENE 9.2 mph 16.1 mph N/A   Overcast
5:16 PM 48.2 °F - 44.6 °F 87% 29.95 in 10.0 mi ENE 8.1 mph - N/A   Overcast
5:54 PM 48.9 °F - 43.0 °F 80% 29.95 in 10.0 mi NE 6.9 mph - N/A   Overcast
6:08 PM 48.2 °F - 44.6 °F 87% 29.94 in 10.0 mi SE 10.4 mph - N/A   Overcast
6:54 PM 48.0 °F - 44.1 °F 86% 29.94 in 10.0 mi East 5.8 mph - N/A   Overcast
7:54 PM 48.0 °F - 44.1 °F 86% 29.94 in 10.0 mi East 4.6 mph - N/A   Overcast
8:54 PM 46.9 °F - 45.0 °F 93% 29.94 in 10.0 mi Calm Calm - 0.00 in   Overcast
9:01 PM 48.2 °F - 44.6 °F 87% 29.93 in 10.0 mi Calm Calm - N/A   Overcast
9:54 PM 48.0 °F - 45.0 °F 89% 29.94 in 10.0 mi East 3.5 mph - N/A   Overcast
10:54 PM 48.0 °F - 45.0 °F 89% 29.92 in 10.0 mi Calm Calm - N/A   Overcast
11:54 PM 46.0 °F 44.8 °F 44.1 °F 93% 29.91 in 10.0 mi West 3.5 mph - N/A   Overcast